Location: Unspecified
(0.0000°N, 0.0000°E)
Time: 23:15:49
(UTC+00:00)

Transit 2A - All Passes

Search period start: 12 December 2018 00:00
Search period end: 22 December 2018 00:00
Orbit: 596 x 963 km, 66.7° (Epoch: 12 December)

Date Brightness Start Highest point End Pass type
(mag) Time Alt. Az. Time Alt. Az. Time Alt. Az.
12 Dec - 08:01:47 10° NNE 08:06:26 21° ENE 08:11:05 10° ESE daylight
12 Dec - 09:43:44 10° NW 09:49:27 36° WSW 09:55:09 10° S daylight
12 Dec - 20:36:49 10° S 20:40:55 44° ESE 20:45:03 10° NE visible
13 Dec - 07:29:35 10° NE 07:32:21 13° ENE 07:35:07 10° E daylight
13 Dec - 09:09:12 10° NNW 09:15:24 57° WSW 09:21:34 10° S daylight
13 Dec - 20:03:25 10° SSE 20:06:53 24° ESE 20:10:21 10° NE visible
13 Dec - 21:47:53 10° W 21:49:45 12° WNW 21:51:37 10° NW night (unlit)
14 Dec - 08:35:01 10° NNW 08:41:21 89° W 08:47:40 10° SSE daylight
14 Dec - 19:30:50 10° SE 19:32:50 13° ESE 19:34:50 10° E visible
14 Dec - 21:12:16 10° WSW 21:15:40 23° WNW 21:19:08 10° NNW visible
15 Dec - 08:01:06 10° N 08:07:19 59° ENE 08:13:30 10° SSE daylight
15 Dec - 09:47:49 10° W 09:50:21 12° WSW 09:52:52 10° SW daylight
15 Dec - 20:37:33 10° SW 20:41:38 42° WNW 20:45:45 10° N visible
16 Dec - 07:27:29 10° N 07:33:16 37° ENE 07:39:01 10° SE daylight
16 Dec - 09:11:42 10° WNW 09:16:17 21° WSW 09:20:48 10° SSW daylight
16 Dec - 20:03:18 10° SSW 20:07:36 83° WNW 20:11:57 10° NNE visible
17 Dec - 06:54:16 10° NNE 06:59:11 24° ENE 07:04:06 10° ESE daylight
17 Dec - 08:36:39 10° NW 08:42:13 33° WSW 08:47:44 10° S daylight
17 Dec - 19:29:24 10° S 19:33:35 51° ESE 19:37:48 10° NNE visible
18 Dec - 06:21:46 10° NE 06:25:07 15° ENE 06:28:27 10° ESE daylight
18 Dec - 08:02:02 10° NW 08:08:10 51° WSW 08:14:14 10° S daylight
18 Dec - 18:55:53 10° SSE 18:59:33 27° ESE 19:03:13 10° NE visible
18 Dec - 20:41:17 10° W 20:42:25 11° WNW 20:43:33 10° NW visible
19 Dec - 07:27:46 10° NNW 07:34:08 81° WSW 07:40:24 10° SSE daylight
19 Dec - 18:23:02 10° SE 18:25:30 15° ESE 18:27:58 10° ENE visible
19 Dec - 20:05:09 10° WSW 20:08:21 20° WNW 20:11:35 10° NNW visible
20 Dec - 06:53:48 10° N 07:00:04 65° ENE 07:06:17 10° SSE daylight
20 Dec - 08:41:32 10° W 08:43:06 11° WSW 08:44:38 10° SW daylight
20 Dec - 19:30:19 10° SW 19:34:17 37° WNW 19:38:20 10° N visible
21 Dec - 06:20:06 10° N 06:26:01 41° ENE 06:31:52 10° SE daylight
21 Dec - 08:04:48 10° WNW 08:09:01 19° WSW 08:13:11 10° SSW daylight
21 Dec - 18:55:58 10° SSW 19:00:15 71° WNW 19:04:37 10° NNE visible
